Tracking 30923 objects as of 1-Jul-2025
HD Live streaming from Space Station
objects crossing your sky now

IRIDIUM 33 DEB

Track IRIDIUM 33 DEB now!
10-day predictions


NORAD ID: 33960
Int'l Code: 1997-051BV
Perigee: 641.4 km
Apogee: 641.7 km
Inclination: 86.3 °
Period: 97.4 minutes
Semi major axis: 7012 km
RCS: 0.042 m2 (small)
Launch date: September 14, 1997
Source: United States (US)
Launch site: TYURATAM MISSILE AND SPACE COMPLEX (TTMTR)

Note: This is SATELLITE DEBRIS
Your satellite tracking list
STARLINK-1640
Track 1 satellite(s)




NASA's NSSDC Master Catalog

Two Line Element Set (TLE):
1 33960U 97051BV  25181.80283859  .00005501  00000-0  75241-3 0  9996
2 33960  86.2613   6.6642 0000271 326.3983  94.5062 14.78388834864263
Source of the keplerian elements: AFSPC